Вернуться в каталог

TIANLIAN 2-02

АктивенСвязьGEO
NORAD 50005·PAYLOAD·🇨🇳 China

Запущен Dec 13, 2021 с Xichang Satellite Launch Center

Loading…

TLE

СвежийSource: Space-Track

Эпоха: Sep 14, 2026, 21:27 UTC

1 50005U 21124A   26257.89409396 -.00000021  00000-0  00000-0 0  9994
2 50005   1.0272  84.5779 0003418 151.7231 250.4003  1.00272363 17523

Отслеживайте TIANLIAN 2-02 в реальном времени с AllMySat

Download on the App Store